| time (UTC) | temp C | wind direction | speed KPH | gust KPH | rain 1hr cm | rain 24hr cm | rain mn cm | humidity % | barometer mb |
| 20260906110030 | 22 | 125 | 0.0 | 0.0 | 0.00 | 0.00 | 0.00 | 95 | 1013.4 |
| 20260906104517 | 22 | 125 | 0.0 | 0.0 | 0.00 | 0.00 | 0.00 | 94 | 1013.2 |
| 20260906103021 | 22 | 125 | 0.0 | 0.0 | 0.00 | 0.00 | 0.00 | 94 | 1013.1 |
| 20260906101527 | 22 | 125 | 0.0 | 0.0 | 0.00 | 0.00 | 0.00 | 95 | 1013.1 |
| 20260906100038 | 22 | 125 | 0.0 | 0.0 | 0.00 | 0.00 | 0.00 | 94 | 1013.0 |
| 20260906094532 | 22 | 125 | 0.0 | 0.0 | 0.00 | 0.00 | 0.00 | 94 | 1013.0 |
| 20260906093033 | 22 | 125 | 0.0 | 0.0 | 0.00 | 0.00 | 0.00 | 94 | 1012.9 |
| 20260906091525 | 22 | 125 | 0.0 | 0.0 | 0.00 | 0.00 | 0.00 | 94 | 1012.7 |
| 20260906090030 | 22 | 125 | 0.0 | 0.0 | 0.00 | 0.00 | 0.00 | 94 | 1012.8 |
| 20260906084529 | 22 | 126 | 0.0 | 0.0 | 0.00 | 0.00 | 0.00 | 94 | 1012.7 |
| 20260906083030 | 22 | 127 | 0.0 | 0.0 | 0.00 | 0.00 | 0.00 | 94 | 1012.6 |
| 20260906081539 | 22 | 127 | 0.0 | 0.0 | 0.00 | 0.00 | 0.00 | 94 | 1012.5 |
| 20260906071533 | 22 | 117 | 0.0 | 0.0 | 0.00 | 0.00 | 0.00 | 93 | 1012.2 |
| 20260906070035 | 22 | 117 | 0.0 | 0.0 | 0.00 | 0.00 | 0.00 | 93 | 1012.3 |
| 20260906064526 | 23 | 117 | 0.0 | 0.0 | 0.00 | 0.00 | 0.00 | 93 | 1012.4 |
| 20260906063031 | 23 | 117 | 0.0 | 0.0 | 0.00 | 0.00 | 0.00 | 93 | 1012.4 |
| 20260906061534 | 23 | 117 | 0.0 | 0.0 | 0.00 | 0.00 | 0.00 | 93 | 1012.3 |
| 20260906060031 | 23 | 117 | 0.0 | 0.0 | 0.00 | 0.00 | 0.00 | 93 | 1012.5 |
| 20260906054526 | 23 | 117 | 0.0 | 0.0 | 0.00 | 0.00 | 0.00 | 92 | 1012.5 |
| 20260906053036 | 23 | 117 | 0.0 | 0.0 | 0.00 | 0.00 | 0.00 | 92 | 1012.6 |
| 20260906051531 | 23 | 117 | 0.0 | 0.0 | 0.00 | 0.00 | 0.00 | 92 | 1012.5 |
| 20260906050042 | 23 | 117 | 0.0 | 0.0 | 0.00 | 0.00 | 0.00 | 92 | 1012.5 |
| 20260906044515 | 23 | 117 | 0.0 | 0.0 | 0.00 | 0.00 | 0.00 | 92 | 1012.6 |
| 20260906043002 | 23 | 117 | 0.0 | 0.0 | 0.00 | 0.00 | 0.00 | 91 | 1012.6 |
| 20260906041503 | 23 | 113 | 0.0 | 0.0 | 0.00 | 0.00 | 0.00 | 91 | 1012.6 |
| 20260906040010 | 24 | 128 | 0.0 | 0.0 | 0.00 | 0.00 | 0.00 | 91 | 1012.7 |
| 20260906034523 | 24 | 128 | 0.0 | 0.0 | 0.00 | 0.00 | 0.00 | 91 | 1012.8 |
| 20260906033014 | 24 | 113 | 0.0 | 0.0 | 0.00 | 0.00 | 0.00 | 90 | 1013.0 |
| 20260906031502 | 25 | 116 | 0.0 | 0.0 | 0.00 | 0.00 | 0.00 | 89 | 1013.1 |
| 20260906030007 | 25 | 122 | 0.0 | 0.0 | 0.00 | 0.00 | 0.00 | 90 | 1013.1 |
| 20260906024512 | 25 | 122 | 0.0 | 0.0 | 0.00 | 0.00 | 0.00 | 89 | 1013.1 |
| 20260906023018 | 25 | 119 | 0.0 | 0.0 | 0.00 | 0.00 | 0.00 | 88 | 1012.9 |
| 20260906021519 | 25 | 119 | 0.0 | 0.0 | 0.00 | 0.00 | 0.00 | 87 | 1012.8 |
| 20260906020006 | 26 | 119 | 0.0 | 0.0 | 0.00 | 0.00 | 0.00 | 86 | 1012.6 |
| 20260906014508 | 26 | 122 | 0.0 | 0.0 | 0.00 | 0.00 | 0.00 | 85 | 1012.4 |
| 20260906013014 | 26 | 111 | 0.0 | 0.0 | 0.00 | 0.00 | 0.00 | 84 | 1012.3 |
| 20260906011523 | 27 | 225 | 0.0 | 0.0 | 0.00 | 0.00 | 0.00 | 81 | 1012.2 |
| 20260906010020 | 27 | 152 | 0.0 | 1.6 | 0.00 | 0.00 | 0.00 | 80 | 1012.2 |
| 20260906004505 | 28 | 171 | 1.6 | 3.2 | 0.00 | 0.00 | 0.00 | 78 | 1011.9 |
| 20260906003010 | 28 | 209 | 0.0 | 8.0 | 0.00 | 0.00 | 0.00 | 77 | 1011.9 |
| 20260906001518 | 29 | 120 | 3.2 | 11.3 | 0.00 | 0.00 | 0.00 | 76 | 1011.9 |
| 20260906000024 | 30 | 175 | 6.4 | 16.1 | 0.00 | 0.00 | 0.00 | 74 | 1011.9 |
| 20260905234520 | 31 | 123 | 0.0 | 1.6 | 0.00 | 0.00 | 0.00 | 74 | 1011.8 |
| 20260905233012 | 32 | 140 | 0.0 | 1.6 | 0.00 | 0.00 | 0.00 | 65 | 1011.7 |
| 20260905231515 | 33 | 139 | 0.0 | 1.6 | 0.00 | 0.00 | 0.00 | 63 | 1011.9 |
| 20260905230019 | 33 | 86 | 0.0 | 4.8 | 0.00 | 0.00 | 0.00 | 62 | 1011.7 |
| 20260905224526 | 34 | 327 | 3.2 | 6.4 | 0.00 | 0.00 | 0.00 | 59 | 1011.7 |
| 20260905223031 | 33 | 166 | 3.2 | 9.7 | 0.00 | 0.00 | 0.00 | 61 | 1011.6 |
| 20260905221513 | 33 | 49 | 3.2 | 8.0 | 0.00 | 0.00 | 0.00 | 59 | 1011.6 |
| 20260905220014 | 33 | 27 | 1.6 | 11.3 | 0.00 | 0.00 | 0.00 | 60 | 1011.5 |
| 20260905214524 | 33 | 351 | 1.6 | 6.4 | 0.00 | 0.03 | 0.00 | 62 | 1011.7 |
| 20260905213030 | 33 | 25 | 1.6 | 9.7 | 0.00 | 0.03 | 0.00 | 60 | 1012.0 |
| 20260905211528 | 33 | 91 | 1.6 | 9.7 | 0.00 | 0.03 | 0.00 | 62 | 1012.1 |
| 20260905210013 | 33 | 56 | 4.8 | 9.7 | 0.00 | 0.03 | 0.00 | 62 | 1012.1 |
| 20260905204519 | 33 | 41 | 4.8 | 12.9 | 0.00 | 0.03 | 0.00 | 63 | 1012.5 |
| 20260905203021 | 33 | 155 | 3.2 | 9.7 | 0.00 | 0.03 | 0.00 | 65 | 1012.7 |
| 20260905201530 | 33 | 110 | 6.4 | 19.3 | 0.00 | 0.03 | 0.00 | 64 | 1013.0 |
| 20260905200039 | 33 | 122 | 1.6 | 6.4 | 0.00 | 0.03 | 0.00 | 66 | 1012.8 |
| 20260905194515 | 33 | 104 | 3.2 | 8.0 | 0.00 | 0.03 | 0.00 | 64 | 1012.9 |
| 20260905193022 | 32 | 30 | 1.6 | 16.1 | 0.00 | 0.03 | 0.00 | 66 | 1013.0 |
| 20260905191532 | 32 | 125 | 3.2 | 8.0 | 0.00 | 0.03 | 0.00 | 66 | 1013.1 |
| 20260905190021 | 32 | 89 | 4.8 | 11.3 | 0.00 | 0.03 | 0.00 | 64 | 1013.4 |
| 20260905184511 | 33 | 118 | 1.6 | 12.9 | 0.00 | 0.03 | 0.00 | 62 | 1013.9 |
| 20260905183016 | 32 | 53 | 3.2 | 9.7 | 0.00 | 0.03 | 0.00 | 67 | 1014.1 |
| 20260905181525 | 32 | 333 | 1.6 | 4.8 | 0.00 | 0.03 | 0.00 | 69 | 1014.1 |
| 20260905180026 | 32 | 151 | 0.0 | 6.4 | 0.00 | 0.03 | 0.00 | 68 | 1014.3 |
| 20260905174507 | 31 | 341 | 3.2 | 9.7 | 0.00 | 0.03 | 0.00 | 70 | 1014.6 |
| 20260905173010 | 30 | 328 | 4.8 | 9.7 | 0.00 | 0.10 | 0.00 | 73 | 1014.8 |
| 20260905171517 | 30 | 4 | 4.8 | 12.9 | 0.00 | 0.18 | 0.00 | 73 | 1015.0 |
| 20260905170023 | 31 | 357 | 3.2 | 11.3 | 0.00 | 0.18 | 0.00 | 73 | 1015.0 |
| 20260905164534 | 30 | 21 | 1.6 | 16.1 | 0.00 | 0.18 | 0.00 | 76 | 1015.0 |
| 20260905163031 | 30 | 330 | 4.8 | 14.5 | 0.00 | 0.18 | 0.00 | 75 | 1015.2 |
| 20260905161531 | 29 | 130 | 0.0 | 8.0 | 0.00 | 0.18 | 0.00 | 79 | 1015.5 |
| 20260905160019 | 28 | 5 | 3.2 | 8.0 | 0.00 | 0.64 | 0.00 | 81 | 1015.6 |
| 20260905154523 | 28 | 289 | 1.6 | 4.8 | 0.00 | 0.84 | 0.00 | 81 | 1015.7 |
| 20260905153045 | 28 | 79 | 0.0 | 1.6 | 0.00 | 0.89 | 0.00 | 83 | 1015.6 |
| 20260905151539 | 27 | 70 | 0.0 | 4.8 | 0.00 | 0.89 | 0.00 | 86 | 1015.5 |
| 20260905150032 | 26 | 42 | 0.0 | 4.8 | 0.00 | 0.89 | 0.00 | 87 | 1015.5 |
| 20260905144523 | 26 | 334 | 1.6 | 8.0 | 0.00 | 0.89 | 0.00 | 87 | 1015.5 |
| 20260905143030 | 25 | 276 | 0.0 | 0.0 | 0.00 | 0.89 | 0.00 | 91 | 1015.4 |
| 20260905141530 | 24 | 324 | 0.0 | 3.2 | 0.00 | 0.89 | 0.00 | 94 | 1015.5 |
| 20260905140032 | 24 | 24 | 0.0 | 3.2 | 0.00 | 0.89 | 0.00 | 95 | 1015.5 |
| 20260905134522 | 24 | 40 | 0.0 | 3.2 | 0.00 | 0.89 | 0.00 | 95 | 1015.4 |
| 20260905133030 | 24 | 346 | 0.0 | 3.2 | 0.00 | 0.89 | 0.00 | 96 | 1015.3 |
| 20260905131536 | 23 | 344 | 0.0 | 3.2 | 0.00 | 0.89 | 0.00 | 96 | 1015.3 |
| 20260905130039 | 23 | 110 | 0.0 | 0.0 | 0.00 | 0.89 | 0.00 | 96 | 1015.0 |
| 20260905124514 | 23 | 110 | 0.0 | 1.6 | 0.00 | 0.89 | 0.00 | 96 | 1015.0 |
| 20260905123017 | 23 | 82 | 0.0 | 3.2 | 0.00 | 0.89 | 0.00 | 96 | 1015.0 |
| 20260905121524 | 23 | 44 | 0.0 | 3.2 | 0.00 | 0.89 | 0.00 | 96 | 1014.8 |
| 20260905120027 | 23 | 345 | 0.0 | 3.2 | 0.00 | 0.89 | 0.00 | 96 | 1014.5 |
| 20260905114532 | 23 | 184 | 0.0 | 0.0 | 0.00 | 0.89 | 0.00 | 96 | 1014.4 |
| 20260905113017 | 23 | 185 | 0.0 | 0.0 | 0.00 | 0.89 | 0.00 | 96 | 1014.4 |
| 20260905111540 | 23 | 185 | 0.0 | 1.6 | 0.00 | 0.89 | 0.00 | 96 | 1014.4 |